GFSFLT2_700_spd_225.txt.gz
Wind_Speed
4 4 2 5 6 7 9 11 12 14 15 15 15 15 15 15 15 16 17 16 15 15 15 15 14 14 14 15 15 14 13 10
8 5 2 1 2 5 7 10 13 14 15 15 15 16 17 19 20 19 19 20 19 18 17 16 16 16 16 18 17 17 16 14
10 7 5 3 4 5 8 10 11 12 13 14 14 16 17 19 20 20 21 23 23 22 22 21 19 19 19 19 20 20 19 17
9 4 5 6 7 7 8 8 9 11 13 13 14 16 18 19 21 21 22 24 25 26 27 27 25 23 21 21 23 23 20 19
9 6 7 8 9 10 9 10 11 12 13 14 16 18 20 21 22 24 25 27 28 28 29 30 29 28 27 24 24 25 24 21
5 4 5 8 9 10 11 12 12 14 15 16 17 18 20 22 23 24 25 27 29 30 30 30 32 32 31 29 27 27 26 24
5 2 2 4 6 9 10 11 14 16 16 16 17 17 16 17 19 22 24 27 29 30 29 28 30 31 31 31 29 29 29 27
4 2 3 3 3 6 8 10 13 14 16 15 14 14 16 19 20 22 25 27 30 30 31 30 30 27 27 29 29 31 31 30
6 5 4 6 4 3 3 4 8 12 13 13 13 14 16 17 18 21 23 26 29 31 33 32 31 31 29 32 34 33 28 30
12 12 9 8 8 8 9 9 10 10 12 13 14 15 14 13 16 20 25 27 28 28 33 35 36 33 35 37 39 38 36 43
16 17 16 15 14 14 14 14 14 11 13 13 14 15 16 18 20 23 26 29 31 30 32 36 39 38 37 38 37 42 35 41
20 20 21 22 22 21 18 19 18 16 17 18 16 16 15 20 22 27 29 31 34 34 35 38 39 39 37 37 35 36 33 40
24 24 25 27 25 26 22 23 22 21 20 20 17 16 18 22 28 30 29 32 36 39 39 40 41 40 41 42 40 36 42 33
29 28 30 30 30 27 26 27 26 25 21 20 19 20 21 26 35 33 35 37 38 39 40 43 45 44 44 46 47 45 41 40
26 28 29 31 30 30 30 29 28 25 22 23 22 23 24 38 41 40 42 39 36 36 38 40 42 42 42 40 43 44 39 36
21 21 27 30 28 31 30 30 29 26 24 23 24 27 34 43 44 47 46 39 36 35 35 36 38 37 38 37 37 37 39 38
16 16 20 25 29 30 29 30 28 26 26 26 28 35 43 46 47 52 44 40 37 32 31 32 33 35 35 37 36 38 34 37
13 13 17 23 25 26 25 27 27 27 29 31 37 43 43 45 52 43 40 39 38 36 33 31 31 32 33 34 36 41 41 42
11 12 15 18 20 21 22 25 27 30 34 38 43 42 42 47 43 38 36 36 36 36 38 37 32 31 32 33 35 38 39 39
12 14 16 18 19 20 22 25 30 36 40 42 43 41 43 42 36 36 36 36 35 38 38 35 33 32 32 32 32 32 31 36

GFSFLT2_700_spd_228.txt.gz
Wind_Speed
1 1 3 6 7 8 10 12 13 13 13 13 13 14 15 15 15 14 15 15 14 15 14 15 14 15 15 15 14 14 13 13
4 3 2 4 5 7 10 12 13 13 14 14 14 15 17 17 18 18 17 17 17 18 18 19 18 18 17 17 17 17 17 16
4 2 1 3 5 7 8 9 11 13 13 13 15 16 17 17 18 19 19 19 20 22 22 23 23 22 21 21 20 20 19 19
5 3 5 6 7 7 9 10 11 12 13 13 14 15 16 16 18 21 21 22 23 24 25 25 25 25 25 25 24 24 23 23
6 5 8 10 10 11 11 11 12 13 14 14 15 15 16 17 19 21 22 23 24 25 26 26 26 26 27 28 27 26 26 25
4 5 8 11 13 14 14 15 15 15 14 14 16 16 16 18 18 19 20 21 23 25 26 28 26 27 27 28 28 28 27 27
4 7 9 11 11 12 13 14 15 15 15 17 18 17 16 16 16 17 18 20 22 23 26 27 27 26 26 27 28 28 27 27
7 5 7 7 7 8 11 12 12 14 17 18 17 16 16 15 16 16 16 17 18 21 24 27 28 29 29 30 26 25 25 25
9 8 7 9 8 7 8 8 8 11 16 17 17 17 16 15 14 15 15 16 18 21 24 28 31 35 34 30 31 33 31 29
13 12 10 10 11 12 12 11 12 10 12 16 19 18 16 15 12 13 15 18 21 24 28 33 34 35 36 34 33 34 36 39
15 15 16 16 16 17 17 17 16 15 13 16 19 19 17 15 13 13 16 24 28 29 31 34 35 37 39 40 39 37 35 37
20 21 22 23 24 23 22 23 21 19 18 17 20 22 21 17 15 17 22 28 31 32 34 36 39 39 41 42 43 41 38 35
26 26 28 29 26 26 27 26 26 24 22 23 25 23 23 18 18 20 28 35 34 36 35 37 38 40 42 43 44 44 44 41
32 31 32 32 32 34 33 31 29 28 26 24 25 26 23 21 23 27 33 37 37 38 35 34 36 37 40 41 45 44 45 46
36 37 37 37 38 37 38 34 33 30 29 28 27 25 24 23 26 31 38 37 40 34 31 32 35 36 36 36 42 44 43 40
28 32 34 38 39 38 39 35 32 30 29 29 27 25 26 28 32 37 39 40 40 32 31 30 30 30 35 36 39 40 37 42
26 29 30 31 33 35 32 34 29 28 29 29 26 28 30 32 37 40 42 44 37 33 31 31 29 29 31 33 34 37 38 38
18 19 20 19 25 28 28 27 28 27 29 27 28 31 34 36 40 41 42 42 34 33 32 31 32 32 31 33 33 37 38 37
16 17 16 17 19 22 25 28 26 27 26 27 31 35 36 38 41 42 44 34 35 35 35 35 36 37 35 34 34 36 37 41
18 19 17 17 19 23 23 24 24 28 29 30 34 37 40 43 42 41 33 35 38 40 40 40 40 40 40 38 37 36 36 37

GFSFLT2_700_spd_231.txt.gz
Wind_Speed
4 5 6 7 8 10 11 12 12 12 12 12 12 12 12 12 12 13 13 13 13 13 14 15 16 16 16 16 16 15 14 12
2 4 7 8 9 10 11 12 13 13 13 13 13 13 13 13 14 14 14 14 15 16 17 18 18 18 18 19 19 20 19 20
3 3 6 8 10 11 12 13 12 12 14 13 13 14 14 14 14 14 15 15 16 16 17 19 20 21 21 22 22 22 23 23
7 7 7 9 11 12 12 12 12 13 12 11 13 14 14 15 13 15 16 17 17 18 19 21 21 22 21 23 23 25 24 27
9 9 11 12 12 12 14 12 12 12 10 11 14 14 15 16 15 16 16 16 17 18 18 20 20 20 24 23 23 25 26 28
11 11 12 13 13 14 13 13 12 12 13 15 15 16 17 17 18 16 14 14 15 17 19 18 19 19 21 23 25 25 28 27
13 12 11 12 13 14 14 15 14 15 17 17 17 18 19 19 18 16 15 17 16 15 15 18 20 22 24 25 26 26 26 26
15 12 12 12 12 13 15 16 16 17 19 19 20 20 20 20 15 14 14 16 14 14 16 19 22 25 31 30 31 28 28 27
16 14 11 11 11 12 14 14 15 15 16 18 18 21 20 19 16 15 18 17 15 15 19 23 26 28 31 35 34 34 31 32
18 17 15 12 13 14 13 13 14 15 13 13 15 19 21 21 20 21 20 15 16 19 23 28 32 36 39 37 36 37 36 34
21 19 17 18 18 18 18 18 19 18 18 17 15 17 20 21 24 24 22 20 22 23 28 33 38 43 45 39 41 38 41 37
27 23 22 22 23 23 23 23 23 23 22 22 21 19 20 24 25 24 23 23 24 30 33 41 45 43 43 43 42 40 40 40
29 30 28 27 27 27 27 27 28 26 27 26 26 25 22 22 27 26 27 26 28 32 40 44 45 41 40 37 38 40 41 41
34 34 34 32 31 32 33 33 33 31 30 29 30 29 24 25 29 29 29 28 31 37 42 43 42 35 34 35 36 39 37 40
35 38 40 41 34 35 38 40 39 36 34 31 30 31 27 26 27 27 30 33 36 42 41 43 37 33 31 30 34 35 36 39
31 39 44 44 38 39 40 41 39 36 35 33 32 30 27 27 28 30 33 35 40 42 42 41 33 34 34 30 29 33 38 42
29 33 38 35 34 36 38 39 39 37 35 33 32 28 28 27 28 32 36 38 42 44 44 34 32 34 36 35 33 33 33 38
29 30 31 31 32 33 33 32 34 36 33 33 30 29 26 27 31 37 39 42 44 43 37 33 35 37 37 38 35 37 37 36
20 22 25 26 28 27 28 28 34 33 32 34 31 30 27 30 35 38 40 43 43 39 35 35 38 41 41 42 40 38 37 37
19 21 23 25 28 29 29 30 33 33 33 31 32 33 31 36 37 39 40 43 41 37 36 38 43 46 46 46 44 43 41 39

GFSFLT2_700_spd_234.txt.gz
Wind_Speed
4 5 6 9 11 12 13 13 12 10 10 9 8 8 8 8 9 9 10 11 11 11 12 13 14 14 14 15 16 15 17 21
1 4 8 10 11 12 12 13 12 11 11 10 10 10 9 10 9 10 9 10 11 12 12 13 14 15 16 16 17 17 18 21
2 4 7 10 12 12 12 12 12 12 11 10 11 11 11 11 9 9 9 11 11 11 12 13 14 15 16 17 18 19 21 22
6 6 9 12 12 13 14 13 12 12 11 12 12 11 11 10 9 10 10 11 11 11 11 12 13 13 15 15 16 19 21 23
9 11 10 14 14 13 13 12 12 13 12 11 11 12 11 10 10 11 12 12 11 11 11 10 11 13 17 15 16 18 21 23
15 12 11 13 13 14 15 13 13 13 13 12 12 13 14 15 12 14 13 13 11 10 11 9 11 13 15 20 25 26 25 25
16 13 13 14 13 15 15 15 14 13 14 13 14 15 16 18 16 15 15 13 14 14 13 13 13 16 19 22 24 27 28 28
19 13 14 13 13 14 14 14 14 16 16 15 16 17 18 19 17 17 15 15 16 17 17 15 17 22 27 32 33 34 33 31
20 17 14 14 12 12 13 14 16 15 15 14 15 15 20 19 18 16 17 18 23 23 21 19 21 25 32 37 42 44 38 33
23 20 15 16 13 13 14 13 13 14 15 12 11 13 16 19 18 20 22 24 24 24 23 24 24 28 34 40 43 47 38 39
25 21 19 18 19 16 16 18 17 17 17 17 17 15 18 21 19 22 25 28 28 29 26 26 29 34 40 46 47 44 43 43
28 22 25 22 22 22 22 21 21 22 21 22 22 21 21 23 25 25 26 29 30 31 30 32 35 38 45 49 47 46 41 39
35 26 24 28 28 27 24 25 25 26 26 26 27 26 26 25 26 30 28 28 29 30 33 34 36 43 47 45 44 40 37 36
36 40 31 27 32 32 32 30 31 31 31 31 32 31 30 29 29 32 30 27 30 30 32 37 41 42 44 45 44 38 35 36
39 42 40 32 31 35 37 38 38 37 36 37 36 34 32 32 30 29 30 27 28 31 35 40 42 42 43 40 40 39 38 38
34 37 42 38 30 32 39 42 42 37 38 38 35 35 35 31 28 25 26 26 29 35 39 39 43 44 41 36 37 38 40 45
25 29 40 41 38 36 38 37 39 40 40 38 38 37 35 30 29 27 24 27 32 37 40 41 44 45 38 35 37 39 40 41
28 31 35 41 40 36 36 35 34 35 35 35 37 39 35 32 28 27 27 30 35 38 39 40 44 40 39 39 41 42 44 44
23 25 26 26 26 31 31 33 34 31 32 37 40 39 33 32 30 30 31 35 37 40 42 43 40 41 39 41 44 47 48 47
16 21 25 25 26 28 30 31 34 32 35 37 37 37 33 32 33 35 36 38 42 42 44 44 40 39 43 45 47 48 50 45

GFSFLT2_700_spd_237.txt.gz
Wind_Speed
6 8 10 12 13 14 15 14 13 12 11 10 8 8 6 5 5 5 5 5 7 8 9 8 8 8 9 10 12 16 19 19
4 5 8 10 12 13 14 14 13 12 11 10 8 7 6 6 6 5 6 7 8 8 8 7 7 8 8 9 11 14 18 22
1 2 5 9 12 13 13 12 11 11 10 8 9 9 8 6 5 7 7 7 9 7 8 8 8 9 10 11 12 12 15 21
4 4 6 9 11 12 12 12 12 11 11 11 11 10 8 7 8 8 8 9 9 9 9 9 8 8 9 11 11 12 14 20
8 7 8 11 12 13 13 13 13 13 12 12 13 11 10 8 8 10 9 11 10 9 10 9 7 6 7 10 15 19 22 26
12 9 11 12 11 14 15 14 14 13 13 14 14 13 12 10 10 12 11 13 12 10 11 9 8 10 14 16 18 20 25 29
12 11 14 12 12 13 15 14 15 15 15 15 15 15 13 12 12 12 14 15 12 13 12 15 16 15 15 17 21 29 34 38
16 12 16 15 12 12 12 13 16 17 16 16 16 15 13 15 13 13 14 14 16 17 17 18 17 20 21 24 28 33 39 41
29 19 16 16 14 13 13 12 14 14 14 14 14 15 14 15 14 15 15 16 19 19 19 20 24 23 24 28 33 37 43 47
31 26 17 18 16 14 14 14 12 12 13 15 14 12 14 15 16 18 19 20 21 20 22 26 26 26 27 30 35 38 45 48
31 21 15 19 19 18 17 15 15 15 15 16 16 16 17 17 16 18 21 24 23 23 26 28 31 31 32 35 37 39 44 42
31 23 16 19 22 23 22 21 19 19 20 19 20 21 22 22 22 22 22 25 26 26 29 28 31 33 36 38 40 43 41 39
34 27 19 18 24 27 26 24 23 23 23 24 24 25 26 27 28 28 28 25 27 27 28 28 30 33 36 39 43 42 40 39
33 34 30 26 25 26 29 31 30 29 29 30 31 31 31 31 31 31 31 29 25 27 30 28 29 32 37 42 46 44 40 39
34 34 32 32 34 32 30 34 36 36 35 36 36 36 36 34 33 35 33 28 26 26 29 27 30 33 38 39 44 41 46 44
36 37 37 37 37 34 31 32 35 35 37 40 40 39 38 36 35 37 36 28 26 26 28 28 31 33 36 38 39 38 45 47
35 39 41 37 34 34 33 34 35 37 35 37 41 41 41 38 38 37 32 30 25 29 27 30 34 36 38 36 36 40 39 43
32 37 40 38 35 35 35 35 36 35 34 35 36 38 40 37 40 34 34 28 26 29 30 34 37 38 39 41 45 41 41 43
25 28 34 34 32 29 27 28 29 31 34 35 36 36 34 38 37 36 35 23 29 33 34 35 39 40 41 43 39 41 42 46
21 18 19 22 24 25 26 29 30 31 34 36 36 32 34 36 34 34 29 29 33 36 36 40 41 39 41 40 40 42 45 46